Tracking 19562 objects as of 22-Mar-2019
HD Live streaming from Space Station
objects crossing your sky now

NEWSAT-1 (PALAPA B2R)

Track NEWSAT-1 (PALAPA B2R) now!
NEWSAT-1 (PALAPA B2R) is classified as:


NORAD ID: 20570
Int'l Code: 1990-034A
Perigee: 35,965.7 km
Apogee: 36,043.3 km
Inclination: 13.7 °
Period: 1,446.9 minutes
Semi major axis: 42375 km
RCS: 1 m2 (large)
Launch date: April 13, 1990
Source: United States (US)
Launch site: AIR FORCE EASTERN TEST RANGE (AFETR)

24 C-band transponders; Middle East, Africa, Russia, Asia.
aabbcc
Your satellite tracking list
Your tracking list is empty




NASA's NSSDC Master Catalog

Two Line Element Set (TLE):
1 20570U 90034A   19081.30466174 -.00000142  00000-0  00000+0 0  9997
2 20570  13.7018  23.6604 0009156  37.1987 143.2184  0.99524641103943
Source of the keplerian elements: AFSPC